DW6049 Melville NY US current weather conditions

sailwx.info

Wind from 216 at 0 knots gusting 6

Air temperature 26.7° C
Dewpoint 17.4° C

Last reported at 2019-Sep-22 19:59 UTC.
Time now 2019-Sep-22 20:19 UTC

Location: N 40°47' W 073°24'.
View on Google Maps.

See reports from other nearby stations

  
Tides and Currents Weather Stations Pressure Air Temp Water Temp Dewpoint Dewpoint Depression Visibility Wind Speed Wind Dir Waves Ship Positions
date/time (UTC)wind fromknots sea level pressurealtimeterstation pressurevisibilityair tempwater tempwave heightnotes
2019-Sep-22 19:59 216 0 gusting 6 26.7
2019-Sep-22 19:54 211 0 gusting 6 26.7
2019-Sep-22 19:49 199 0 gusting 5 26.7
2019-Sep-22 19:44 200 0 gusting 6 27.2
2019-Sep-22 19:39 212 1 gusting 6 27.2
2019-Sep-22 19:34 216 0 gusting 6 27.2
2019-Sep-22 19:29 207 0 gusting 7 27.2
2019-Sep-22 19:24 202 1 gusting 7 27.2
2019-Sep-22 19:19 200 1 gusting 8 27.8
2019-Sep-22 19:14 202 0 gusting 8 27.8
2019-Sep-22 19:09 212 0 gusting 6 27.8
2019-Sep-22 19:04 270 0 gusting 5 27.8
2019-Sep-22 18:59 252 1 gusting 5 27.8
2019-Sep-22 18:54 219 1 gusting 7 28.3
2019-Sep-22 18:49 208 0 gusting 7 28.3
2019-Sep-22 18:44 28.3
2019-Sep-22 18:39 201 0 gusting 6 28.3
2019-Sep-22 18:34 203 1 gusting 6 28.3
2019-Sep-22 18:29 207 1 gusting 6 28.9
2019-Sep-22 18:24 213 0 gusting 6 28.9
2019-Sep-22 18:19 209 0 gusting 8 28.9
2019-Sep-22 18:14 223 0 gusting 8 28.9
2019-Sep-22 18:09 228 0 gusting 6 28.9
2019-Sep-22 18:04 221 0 gusting 6 28.9
2019-Sep-22 17:59 226 0 gusting 6 28.9
2019-Sep-22 17:54 222 0 gusting 8 28.3
2019-Sep-22 17:49 208 1 gusting 8 28.3
2019-Sep-22 17:44 205 1 gusting 7 28.9
2019-Sep-22 17:39 203 1 gusting 6 28.9
2019-Sep-22 17:34 203 0 gusting 6 28.3
2019-Sep-22 17:29 204 1 gusting 8 28.3
2019-Sep-22 17:24 220 0 gusting 8 28.3
2019-Sep-22 17:19 222 0 gusting 8 28.3
2019-Sep-22 17:14 200 0 gusting 6 28.3
2019-Sep-22 17:09 223 0 gusting 6 28.9
2019-Sep-22 17:04 218 0 gusting 5 28.3
2019-Sep-22 16:59 207 0 gusting 5 28.9
2019-Sep-22 16:54 190 0 gusting 9 28.3
2019-Sep-22 16:49 184 0 gusting 9 28.3
2019-Sep-22 16:44 204 0 gusting 8 28.3
2019-Sep-22 16:39 203 0 gusting 5 28.3
2019-Sep-22 16:34 28.3
2019-Sep-22 16:29 211 0 gusting 6 27.8
2019-Sep-22 16:24 247 0 gusting 6 27.8
2019-Sep-22 16:19 270 0 gusting 6 27.8
2019-Sep-22 16:14 27.2
2019-Sep-22 16:09 247 0 gusting 7 27.2
2019-Sep-22 16:04 280 0 gusting 1 26.7
2019-Sep-22 15:59 26.7
2019-Sep-22 15:54 26.7
2019-Sep-22 15:49 26.7
2019-Sep-22 15:44 26.1
2019-Sep-22 15:39 26.1
2019-Sep-22 15:34 238 0 gusting 5 25.6
2019-Sep-22 15:29 220 0 gusting 4 25.6
2019-Sep-22 15:24 206 0 gusting 6 25.6
2019-Sep-22 15:19 25.0
2019-Sep-22 15:14 25.0
2019-Sep-22 15:09 24.4
2019-Sep-22 15:04 24.4
2019-Sep-22 14:59 23.9
2019-Sep-22 14:54 23.9
2019-Sep-22 14:49 23.3
2019-Sep-22 14:44 23.3
2019-Sep-22 14:39 22.8
2019-Sep-22 14:34 22.8
2019-Sep-22 14:29 22.2
2019-Sep-22 14:24 22.2
2019-Sep-22 14:19 21.7
2019-Sep-22 14:14 21.1
2019-Sep-22 14:09 21.1
2019-Sep-22 14:04 20.6
2019-Sep-22 13:59 20.0
2019-Sep-22 13:54 20.0
2019-Sep-22 13:49 19.4
2019-Sep-22 13:44 19.4
2019-Sep-22 13:39 19.4
2019-Sep-22 13:34 19.4
2019-Sep-22 13:29 18.9
2019-Sep-22 13:24 18.9
2019-Sep-22 13:19 18.9
2019-Sep-22 13:14 18.3
2019-Sep-22 13:09 18.3
2019-Sep-22 13:04 17.8
2019-Sep-22 12:59 17.8
2019-Sep-22 12:54 17.2
2019-Sep-22 12:49 17.2
2019-Sep-22 12:44 16.7
2019-Sep-22 12:39 16.1
2019-Sep-22 12:34 15.6
2019-Sep-22 12:29 15.6
2019-Sep-22 12:24 15.0
2019-Sep-22 12:19 14.4
2019-Sep-22 12:14 14.4
2019-Sep-22 12:09 14.4
2019-Sep-22 12:04 14.4
2019-Sep-22 11:59 13.9
2019-Sep-22 11:54 13.9
2019-Sep-22 11:49 13.9
2019-Sep-22 11:44 13.3
2019-Sep-22 11:39 13.3
2019-Sep-22 11:34 13.3
2019-Sep-22 11:29 13.3
2019-Sep-22 11:24 13.3
2019-Sep-22 11:19 13.3
2019-Sep-22 11:14 13.3
2019-Sep-22 11:09 13.3
2019-Sep-22 11:04 13.3
2019-Sep-22 10:59 13.3
2019-Sep-22 10:54 13.3
2019-Sep-22 10:49 13.3
2019-Sep-22 10:44 13.3
2019-Sep-22 10:39 13.3
2019-Sep-22 10:34 13.3
2019-Sep-22 10:29 13.3
2019-Sep-22 10:24 13.3
2019-Sep-22 10:19 13.3
2019-Sep-22 10:14 13.3
2019-Sep-22 10:09 13.3
2019-Sep-22 10:04 13.3
2019-Sep-22 09:59 13.9
2019-Sep-22 09:54 13.9
2019-Sep-22 09:49 13.9
2019-Sep-22 09:44 13.9
2019-Sep-22 09:39 13.9
2019-Sep-22 09:34 13.9
2019-Sep-22 09:29 13.9
2019-Sep-22 09:24 13.9
2019-Sep-22 09:19 13.9
2019-Sep-22 09:14 13.9
2019-Sep-22 09:09 13.9
2019-Sep-22 09:04 13.9
2019-Sep-22 08:59 13.9
2019-Sep-22 08:54 13.9
2019-Sep-22 08:49 13.9
2019-Sep-22 08:44 13.9
2019-Sep-22 08:39 13.9
2019-Sep-22 08:34 13.9
2019-Sep-22 08:29 13.9
2019-Sep-22 08:24 14.4
2019-Sep-22 08:19 14.4
2019-Sep-22 08:14 14.4
2019-Sep-22 08:09 14.4
2019-Sep-22 08:04 14.4
2019-Sep-22 07:59 14.4
2019-Sep-22 07:54 14.4
2019-Sep-22 07:49 14.4
2019-Sep-22 07:44 14.4
2019-Sep-22 07:39 14.4
2019-Sep-22 07:34 14.4
2019-Sep-22 07:29 14.4
2019-Sep-22 07:24 14.4
2019-Sep-22 07:19 14.4
2019-Sep-22 07:14 14.4
2019-Sep-22 07:09 15.0
2019-Sep-22 07:04 15.0
2019-Sep-22 06:59 15.0
2019-Sep-22 06:54 15.0
2019-Sep-22 06:49 15.0
2019-Sep-22 06:44 15.0
2019-Sep-22 06:39 15.0
2019-Sep-22 06:34 15.0
2019-Sep-22 06:29 15.0
2019-Sep-22 06:24 15.6
2019-Sep-22 06:19 15.6
2019-Sep-22 06:14 15.6
2019-Sep-22 06:09 15.6
2019-Sep-22 06:04 15.6
2019-Sep-22 05:59 15.6
2019-Sep-22 05:54 15.6
2019-Sep-22 05:49 15.6
2019-Sep-22 05:44 15.6
2019-Sep-22 05:39 15.6
2019-Sep-22 05:34 15.6
2019-Sep-22 05:29 15.6
2019-Sep-22 05:24 15.6
2019-Sep-22 05:19 15.6
2019-Sep-22 05:14 15.6
2019-Sep-22 05:09 15.6
2019-Sep-22 05:04 15.6
2019-Sep-22 04:59 15.6
2019-Sep-22 04:54 15.6
2019-Sep-22 04:49 15.6
2019-Sep-22 04:44 16.1
2019-Sep-22 04:39 15.6
2019-Sep-22 04:34 15.6
2019-Sep-22 04:29 16.1
2019-Sep-22 04:24 16.1
2019-Sep-22 04:19 16.1
2019-Sep-22 04:14 16.1
2019-Sep-22 04:09 16.1
2019-Sep-22 04:04 16.1
2019-Sep-22 03:59 16.1
2019-Sep-22 03:54 16.1
2019-Sep-22 03:49 16.1
2019-Sep-22 03:44 16.1
2019-Sep-22 03:39 16.1
2019-Sep-22 03:34 16.1
2019-Sep-22 03:29 16.1
2019-Sep-22 03:24 16.7
2019-Sep-22 03:19 16.7
2019-Sep-22 03:14 16.7
2019-Sep-22 03:09 16.7
2019-Sep-22 03:04 16.7
2019-Sep-22 02:59 16.7
2019-Sep-22 02:54 16.7
2019-Sep-22 02:49 16.7
2019-Sep-22 02:44 16.7
2019-Sep-22 02:39 16.7
2019-Sep-22 02:34 16.7
2019-Sep-22 02:29 16.7
2019-Sep-22 02:24 16.7
2019-Sep-22 02:19 16.7
2019-Sep-22 02:14 16.7
2019-Sep-22 02:09 17.2
2019-Sep-22 02:04 17.2
2019-Sep-22 01:59 17.2
2019-Sep-22 01:54 17.2
2019-Sep-22 01:49 17.2
2019-Sep-22 01:44 17.2
2019-Sep-22 01:39 17.2
2019-Sep-22 01:34 17.8
2019-Sep-22 01:29 17.8
2019-Sep-22 01:24 17.8
2019-Sep-22 01:19 17.8
2019-Sep-22 01:14 17.8
2019-Sep-22 01:09 17.8
2019-Sep-22 01:04 17.8
2019-Sep-22 00:59 17.8
2019-Sep-22 00:54 18.3
2019-Sep-22 00:49 18.3
2019-Sep-22 00:44 18.3
2019-Sep-22 00:39 18.3
2019-Sep-22 00:34 18.3
2019-Sep-22 00:29 18.9
2019-Sep-22 00:24 18.9
2019-Sep-22 00:19 18.9
2019-Sep-22 00:14 18.9
2019-Sep-22 00:09 19.4
2019-Sep-22 00:04 19.4
2019-Sep-21 23:59 19.4
2019-Sep-21 23:54 19.4
2019-Sep-21 23:49 20.0
2019-Sep-21 23:44 20.0
2019-Sep-21 23:39 20.0
2019-Sep-21 23:34 20.0
2019-Sep-21 23:29 20.6
2019-Sep-21 23:24 20.6
2019-Sep-21 23:19 21.1
2019-Sep-21 23:14 21.1
2019-Sep-21 23:09 21.7
2019-Sep-21 23:04 21.7
2019-Sep-21 22:59 22.2
2019-Sep-21 22:54 22.2
2019-Sep-21 22:49 22.2
2019-Sep-21 22:44 22.8
2019-Sep-21 22:39 23.3
2019-Sep-21 22:34 23.3
2019-Sep-21 22:29 23.9
2019-Sep-21 22:24 23.9
2019-Sep-21 22:19 23.9
2019-Sep-21 22:14 24.4
2019-Sep-21 22:09 24.4
2019-Sep-21 22:04 24.4
2019-Sep-21 21:59 25.0
2019-Sep-21 21:54 25.0
2019-Sep-21 21:49 25.0
2019-Sep-21 21:44 25.0
2019-Sep-21 21:39 25.6
2019-Sep-21 21:34 25.6
2019-Sep-21 21:29 25.6
2019-Sep-21 21:24 25.6
2019-Sep-21 21:19 25.6
2019-Sep-21 21:14 26.1
2019-Sep-21 21:09 26.1
2019-Sep-21 21:04 26.1
2019-Sep-21 20:59 26.1
2019-Sep-21 20:54 26.1
2019-Sep-21 20:49 26.1
2019-Sep-21 20:44 26.7
2019-Sep-21 20:39 26.7
2019-Sep-21 20:34 26.1
2019-Sep-21 20:29 26.7
2019-Sep-21 20:24 26.7
2019-Sep-21 20:19 26.7
2019-Sep-21 20:14 26.7
2019-Sep-21 20:09 26.7
2019-Sep-21 20:04 27.2
2019-Sep-21 19:59 27.2
2019-Sep-21 19:54 27.2
2019-Sep-21 19:49 27.2
2019-Sep-21 19:44 27.2
2019-Sep-21 19:39 27.2
2019-Sep-21 19:34 27.8
2019-Sep-21 19:29 27.8
2019-Sep-21 19:24 27.8
2019-Sep-21 19:19 27.8
2019-Sep-21 19:14 27.8
2019-Sep-21 19:09 27.8
2019-Sep-21 19:04 27.8
2019-Sep-21 18:59 28.3
2019-Sep-21 18:54 28.3
2019-Sep-21 18:49 28.3
2019-Sep-21 18:44 28.3
2019-Sep-21 18:39 28.3
2019-Sep-21 18:34 28.3
2019-Sep-21 18:29 28.9
2019-Sep-21 18:24 28.9
2019-Sep-21 18:19 211 0 gusting 5 28.3
2019-Sep-21 18:14 295 0 gusting 6 28.3
2019-Sep-21 18:09 294 0 gusting 6 28.3
2019-Sep-21 18:04 28.3
2019-Sep-21 17:59 28.3
2019-Sep-21 17:54 28.3
2019-Sep-21 17:49 28.3
2019-Sep-21 17:44 28.3
2019-Sep-21 17:39 28.3
2019-Sep-21 17:34 28.3
2019-Sep-21 17:29 28.3
2019-Sep-21 17:24 27.8
2019-Sep-21 17:19 27.8
2019-Sep-21 17:14 27.8
2019-Sep-21 17:09 27.2
2019-Sep-21 17:04 27.2
2019-Sep-21 16:59 27.2
2019-Sep-21 16:54 27.2
2019-Sep-21 16:49 26.7
2019-Sep-21 16:44 26.7
2019-Sep-21 16:39 26.7
2019-Sep-21 16:34 26.7
2019-Sep-21 16:29 26.1
2019-Sep-21 16:24 26.1
2019-Sep-21 16:19 25.6
2019-Sep-21 16:14 25.6
2019-Sep-21 16:09 25.6
2019-Sep-21 16:04 25.0
2019-Sep-21 15:59 25.0
2019-Sep-21 15:54 24.4
2019-Sep-21 15:49 24.4
2019-Sep-21 15:44 24.4
2019-Sep-21 15:39 23.9
2019-Sep-21 15:34 23.9
2019-Sep-21 15:29 23.3
2019-Sep-21 15:24 289 0 gusting 4 23.3
2019-Sep-21 15:19 22.8
2019-Sep-21 15:14 22.8
2019-Sep-21 15:09 22.2
2019-Sep-21 15:04 22.2
2019-Sep-21 14:59 21.7
2019-Sep-21 14:54 21.7
2019-Sep-21 14:49 21.7
2019-Sep-21 14:44 21.1
2019-Sep-21 14:39 21.1
2019-Sep-21 14:34 21.1
2019-Sep-21 14:29 20.6
2019-Sep-21 14:24 20.6
2019-Sep-21 14:19 20.0
2019-Sep-21 14:14 20.0
2019-Sep-21 14:09 19.4
2019-Sep-21 14:04 19.4
2019-Sep-21 13:59 18.9
2019-Sep-21 13:54 18.3
2019-Sep-21 13:49 18.3
2019-Sep-21 13:44 17.8
2019-Sep-21 13:39 17.8
2019-Sep-21 13:34 17.2
2019-Sep-21 13:29 17.2
2019-Sep-21 13:24 16.7
2019-Sep-21 13:19 16.7
2019-Sep-21 13:14 16.1
2019-Sep-21 13:09 16.1
2019-Sep-21 13:04 15.6
2019-Sep-21 12:59 15.6
2019-Sep-21 12:54 15.6
2019-Sep-21 12:49 15.0
2019-Sep-21 12:44 14.4
2019-Sep-21 12:39 14.4
2019-Sep-21 12:34 14.4
2019-Sep-21 12:29 13.9
2019-Sep-21 12:24 13.9
2019-Sep-21 12:19 13.9
2019-Sep-21 12:14 13.3
2019-Sep-21 12:09 13.3
2019-Sep-21 12:04 13.3
2019-Sep-21 11:59 13.3
2019-Sep-21 11:54 12.8
2019-Sep-21 11:49 12.8
2019-Sep-21 11:44 12.8
2019-Sep-21 11:39 12.8
2019-Sep-21 11:34 12.2
2019-Sep-21 11:29 12.2
2019-Sep-21 11:24 12.2
2019-Sep-21 11:19 12.2
2019-Sep-21 11:14 12.2
2019-Sep-21 11:09 12.2
2019-Sep-21 11:04 12.2
2019-Sep-21 10:59 12.2
2019-Sep-21 10:54 12.2
2019-Sep-21 10:49 12.2
2019-Sep-21 10:44 12.2
2019-Sep-21 10:39 12.2
2019-Sep-21 10:34 12.2
2019-Sep-21 10:29 12.2
2019-Sep-21 10:24 12.2
2019-Sep-21 10:19 12.2
2019-Sep-21 10:14 12.2
2019-Sep-21 10:09 12.2
2019-Sep-21 10:04 12.2
2019-Sep-21 09:59 12.2
2019-Sep-21 09:54 12.2
2019-Sep-21 09:49 12.2
2019-Sep-21 09:44 12.2
2019-Sep-21 09:39 12.2
2019-Sep-21 09:34 12.2
2019-Sep-21 09:29 12.8
2019-Sep-21 09:24 12.8
2019-Sep-21 09:19 12.8
2019-Sep-21 09:14 12.8
2019-Sep-21 09:09 12.8
2019-Sep-21 09:04 12.8
2019-Sep-21 08:59 12.8
2019-Sep-21 08:54 12.8
2019-Sep-21 08:49 12.8
2019-Sep-21 08:44 12.8
2019-Sep-21 08:39 12.8
2019-Sep-21 08:34 12.8
2019-Sep-21 08:29 12.8
2019-Sep-21 08:24 12.8
2019-Sep-21 08:19 12.8
2019-Sep-21 08:14 12.8
2019-Sep-21 08:09 13.3
2019-Sep-21 08:04 13.3
2019-Sep-21 07:59 13.3
2019-Sep-21 07:54 13.3
2019-Sep-21 07:49 13.3
2019-Sep-21 07:44 13.3
2019-Sep-21 07:39 13.3
2019-Sep-21 07:34 13.3
2019-Sep-21 07:29 13.3
2019-Sep-21 07:24 13.3
2019-Sep-21 07:19 13.3
2019-Sep-21 07:14 13.3
2019-Sep-21 07:09 13.3
2019-Sep-21 07:04 13.9
2019-Sep-21 06:59 13.9
2019-Sep-21 06:54 13.9
2019-Sep-21 06:49 13.9
2019-Sep-21 06:44 13.9
2019-Sep-21 06:39 13.9
2019-Sep-21 06:34 13.9
2019-Sep-21 06:29 13.9
2019-Sep-21 06:24 13.9
2019-Sep-21 06:19 13.9
2019-Sep-21 06:14 13.9
2019-Sep-21 06:09 13.9
2019-Sep-21 06:04 13.9
2019-Sep-21 05:59 13.9
2019-Sep-21 05:54 13.9
2019-Sep-21 05:49 13.9
2019-Sep-21 05:44 13.9
2019-Sep-21 05:39 13.9
2019-Sep-21 05:34 13.9
2019-Sep-21 05:29 13.9
2019-Sep-21 05:24 14.4
2019-Sep-21 05:19 14.4
2019-Sep-21 05:14 14.4
2019-Sep-21 05:09 14.4
2019-Sep-21 05:04 14.4
2019-Sep-21 04:59 14.4
2019-Sep-21 04:54 14.4
2019-Sep-21 04:49 14.4
2019-Sep-21 04:44 14.4
2019-Sep-21 04:39 14.4
2019-Sep-21 04:34 14.4
2019-Sep-21 04:29 14.4
2019-Sep-21 04:24 14.4
2019-Sep-21 04:19 14.4
2019-Sep-21 04:14 14.4
2019-Sep-21 04:09 14.4
2019-Sep-21 04:04 14.4
2019-Sep-21 03:59 14.4
2019-Sep-21 03:54 14.4
2019-Sep-21 03:49 14.4
2019-Sep-21 03:44 14.4
2019-Sep-21 03:39 14.4
2019-Sep-21 03:34 15.0
2019-Sep-21 03:29 15.0
2019-Sep-21 03:24 15.0
2019-Sep-21 03:19 15.0
2019-Sep-21 03:09 15.0
2019-Sep-21 03:04 15.0
2019-Sep-21 02:59 15.0
2019-Sep-21 02:54 15.0
2019-Sep-21 02:49 15.0
2019-Sep-21 02:44 15.0
2019-Sep-21 02:39 15.0
2019-Sep-21 02:34 15.6
2019-Sep-21 02:29 15.6
2019-Sep-21 02:24 15.6
2019-Sep-21 02:19 15.6
2019-Sep-21 02:14 15.6
2019-Sep-21 02:09 15.6
2019-Sep-21 02:04 15.6
2019-Sep-21 01:59 15.6
2019-Sep-21 01:54 15.6
2019-Sep-21 01:49 15.6
2019-Sep-21 01:44 15.6
2019-Sep-21 01:39 15.6
2019-Sep-21 01:34 16.1
2019-Sep-21 01:29 16.1
2019-Sep-21 01:24 16.1
2019-Sep-21 01:19 16.1
2019-Sep-21 01:14 16.1
2019-Sep-21 01:09 16.1
2019-Sep-21 01:04 16.7
2019-Sep-21 00:59 16.7
2019-Sep-21 00:54 16.7
2019-Sep-21 00:49 16.7
2019-Sep-21 00:44 16.7
2019-Sep-21 00:39 17.2
2019-Sep-21 00:34 17.2
2019-Sep-21 00:29 17.2
2019-Sep-21 00:24 17.8
2019-Sep-21 00:19 17.8
2019-Sep-21 00:14 17.8
2019-Sep-21 00:09 18.3
2019-Sep-21 00:04 18.3
2019-Sep-20 23:59 18.3
2019-Sep-20 23:54 18.9
2019-Sep-20 23:49 18.9
2019-Sep-20 23:44 18.9
2019-Sep-20 23:39 19.4
2019-Sep-20 23:34 19.4
2019-Sep-20 23:29 19.4
2019-Sep-20 23:24 19.4
2019-Sep-20 23:19 20.0
2019-Sep-20 23:14 20.0
2019-Sep-20 23:09 20.0
2019-Sep-20 23:04 20.6
2019-Sep-20 22:59 20.6
2019-Sep-20 22:54 20.6
2019-Sep-20 22:49 21.1
2019-Sep-20 22:44 21.1
2019-Sep-20 22:39 21.7
2019-Sep-20 22:34 22.2
2019-Sep-20 22:29 22.2
2019-Sep-20 22:24 22.8
2019-Sep-20 22:19 23.3
2019-Sep-20 22:14 23.3
2019-Sep-20 22:09 23.3
2019-Sep-20 22:04 23.3
2019-Sep-20 21:59 23.3
2019-Sep-20 21:54 23.9
2019-Sep-20 21:49 23.9
2019-Sep-20 21:44 23.9
2019-Sep-20 21:39 23.9
2019-Sep-20 21:34 23.9
2019-Sep-20 21:29 23.9
2019-Sep-20 21:24 23.9
2019-Sep-20 21:19 23.9
2019-Sep-20 21:14 23.9
2019-Sep-20 21:09 23.9
2019-Sep-20 21:04 23.9
2019-Sep-20 20:59 284 0 gusting 3 23.9
2019-Sep-20 20:54 287 0 gusting 5 23.9
2019-Sep-20 20:49 23.9
2019-Sep-20 20:44 23.9
2019-Sep-20 20:39 23.9
2019-Sep-20 20:34 318 0 gusting 4 23.9
2019-Sep-20 20:29 290 1 gusting 7 23.9
2019-Sep-20 20:24 295 1 gusting 7 23.9
2019-Sep-20 20:19 325 0 gusting 5 23.9
2019-Sep-20 20:14 321 0 gusting 3 23.9
2019-Sep-20 20:09 296 0 gusting 4 23.9
2019-Sep-20 20:04 283 0 gusting 4 23.9